Location: Biltmore Gardens
(41.6070°N, 83.4666°W)
Time: 14:06:01
(UTC+00:00)

DELTA 2 R/B (1) - Pass Details

Date: 14 July 2020
Orbit: 791 x 802 km, 39.6° (Epoch: 04 August)

Event Time Altitude Azimuth Distance (km) Brightness Sun altitude
Rises 02:45:23 0° 271° (W) 3,283 7.4 -15.0°
Reaches altitude 10° 02:47:52 10° 269° (W) 2,355 6.6 -15.3°
Maximum altitude 02:53:24 70° 187° (S) 843 3.5 -16.0°
Enters shadow 02:57:08 21° 108° (ESE) 1,713 4.8 -16.4°
